This is the latest recevied weather packets stored in our database for station/object OE7AOT-2. If no packets are shown the sender has not sent any weather packets the latest 10 day(s).
| Time | Temp. | Humidity | Pressure | Rain* | Wind** | Luminosity | Snow |
|---|---|---|---|---|---|---|---|
| 1778070593 | 35.56° C | 53% | 914.7 hPa | 0 mm | - | - | - |
| 1778070524 | 35° C | 53% | 914.8 hPa | 0 mm | - | - | - |
| 1778070456 | 35° C | 54% | 914.9 hPa | 0 mm | - | - | - |
| 1778070388 | 32.78° C | 57% | 914.8 hPa | 0 mm | - | - | - |
| 1778070319 | 33.33° C | 58% | 915 hPa | 0 mm | - | - | - |
| 1778070251 | 33.89° C | 57% | 914.9 hPa | 0 mm | - | - | - |
| 1778070182 | 32.78° C | 58% | 914.9 hPa | 0 mm | - | - | - |
| 1778070114 | 31.67° C | 59% | 915 hPa | 0 mm | - | - | - |
| 1778070045 | 32.22° C | 59% | 915 hPa | 0 mm | - | - | - |
| 1778069977 | 32.78° C | 58% | 914.9 hPa | 0 mm | - | - | - |
| 1778069909 | 32.22° C | 59% | 914.9 hPa | 0 mm | - | - | - |
| 1778069840 | 31.11° C | 60% | 914.8 hPa | 0 mm | - | - | - |
| 1778069772 | 30.56° C | 61% | 914.7 hPa | 0 mm | - | - | - |
| 1778069703 | 30.56° C | 61% | 914.8 hPa | 0 mm | - | - | - |
| 1778069635 | 30.56° C | 60% | 914.8 hPa | 0 mm | - | - | - |
| 1778069566 | 30.56° C | 60% | 914.8 hPa | 0 mm | - | - | - |
| 1778069498 | 31.11° C | 60% | 914.9 hPa | 0 mm | - | - | - |
| 1778069430 | 31.11° C | 59% | 914.9 hPa | 0 mm | - | - | - |
| 1778069361 | 31.11° C | 59% | 914.9 hPa | 0 mm | - | - | - |
| 1778069293 | 31.11° C | 59% | 915 hPa | 0 mm | - | - | - |
| 1778069224 | 31.11° C | 59% | 914.9 hPa | 0 mm | - | - | - |
| 1778069156 | 31.67° C | 59% | 914.9 hPa | 0 mm | - | - | - |
| 1778069087 | 31.67° C | 59% | 914.9 hPa | 0 mm | - | - | - |
| 1778069019 | 31.67° C | 59% | 914.9 hPa | 0 mm | - | - | - |
| 1778068950 | 31.67° C | 59% | 914.9 hPa | 0 mm | - | - | - |
* Rain latest hour (hover to see other rain measurements)
** Current wind speed in m/s (hover to see current wind gust speed)